BEIDOU-3 M16 (C35)

Last updated on Mon Dec 15 2025 00:03:34 GMT+0000 (Coordinated Universal Time)

1 43647U 18078A 25347.23565718 -.00000097 00000+0 00000+0 0 9991 2 43647 54.2615 306.5038 0007205 19.3609 340.6562 1.86232340 48698
UTC large
Height (km)
Speed (km/s)
/
Latitude / Longitude
Inclination (degrees)
Orbital Period (minutes)
Azimuth
Elevation
Range (km)
Doppler Factor

Next 0 passes for location: London (51.5072 / 0.1276)

Sorry there are no passes over London.